Location: Unspecified
(0.0000°N, 0.0000°E)
Time: 04:16:43
(UTC+00:00)

N. Korean satellite - Pass Details

Date: 28 September 2022
Orbit: 427 x 468 km, 97.3° (Epoch: 25 September)

Event Time Altitude Azimuth Distance (km) Brightness Sun altitude
Rises 05:16:16 0° 354° (N) 2,377 10.0 -8.6°
Reaches altitude 10° 05:18:25 10° 342° (NNW) 1,517 8.9 -8.1°
Maximum altitude 05:21:15 28° 281° (W) 840 7.2 -7.4°
Drops below altitude 10° 05:24:07 10° 220° (SW) 1,536 8.7 -6.7°
Sets 05:26:20 0° 208° (SSW) 2,412 9.8 -6.1°
